GW5243 Weather Reports


Display with metric or nautical units.
time (UTC)temp
F
wind
direction
speed
MPH
gust
MPH
rain 1hr
in
rain 24hr
in
rain mn
in
humidity
%
barometer
mb
20260904053038 58 32 0.0 0.0 0.00 0.03 0.00 96 1011.4
20260904051510 59 32 0.0 0.0 0.00 0.03 0.00 96 1011.5
20260904050024 59 32 0.0 0.0 0.00 0.03 0.00 96 1011.6
20260904044515 59 32 0.0 0.0 0.00 0.03 0.00 96 1011.6
20260904043038 60 32 0.0 0.0 0.00 0.03 0.00 96 1011.7
20260904041529 60 32 0.0 0.0 0.00 0.03 0.00 97 1011.7
20260904040010 60 40 0.0 0.0 0.00 0.03 0.00 97 1011.8
20260904034510 60 40 0.0 2.0 0.00 0.03 0.03 96 1011.9
20260904033024 60 40 0.0 0.0 0.00 0.03 0.03 96 1011.9
20260904031528 61 40 0.0 1.0 0.00 0.03 0.03 96 1012.1
20260904030031 61 40 0.0 2.0 0.00 0.03 0.03 96 1012.1
20260904024510 61 319 0.0 0.0 0.00 0.03 0.03 96 1012.3
20260904023016 62 319 0.0 0.0 0.00 0.03 0.03 96 1012.2
20260904021523 62 319 0.0 0.0 0.00 0.03 0.03 96 1012.1
20260904020028 63 319 0.0 0.0 0.00 0.03 0.03 95 1012.3
20260904014553 63 319 0.0 2.0 0.00 0.03 0.03 95 1012.3
20260904013015 64 319 0.0 2.0 0.00 0.03 0.03 95 1012.4
20260904011518 64 319 0.0 2.0 0.00 0.03 0.03 95 1012.3
20260904010025 65 319 0.0 2.0 0.00 0.03 0.03 95 1012.2
20260904004504 65 319 0.0 1.0 0.00 0.03 0.03 94 1012.2
20260904003009 66 319 0.0 2.0 0.00 0.03 0.03 95 1011.8
20260904001515 66 292 0.0 2.0 0.00 0.03 0.03 94 1011.7
20260904000024 67 248 0.0 0.0 0.00 0.03 0.03 93 1011.5
20260903234534 67 248 0.0 2.0 0.00 0.03 0.03 93 1011.3
20260903233024 68 248 0.0 1.0 0.00 0.03 0.03 93 1011.2
20260903231512 68 277 0.0 2.0 0.00 0.03 0.03 92 1011.3
20260903230028 69 331 0.0 2.0 0.00 0.03 0.03 92 1011.3
20260903224527 70 337 0.0 2.0 0.00 0.03 0.03 90 1011.3
20260903223029 71 310 0.0 2.0 0.00 0.03 0.03 87 1011.3
20260903221510 74 310 0.0 2.0 0.00 0.03 0.03 83 1011.4
20260903220017 75 265 0.0 2.0 0.00 0.03 0.03 82 1011.8
20260903214536 77 352 0.0 2.0 0.00 0.03 0.03 79 1011.9
20260903213028 77 306 0.0 2.0 0.00 0.03 0.03 76 1011.8
20260903211507 77 352 0.0 2.0 0.00 0.03 0.03 78 1011.8
20260903210018 76 217 1.0 4.0 0.00 0.03 0.03 79 1011.7
20260903204517 77 246 0.0 3.0 0.00 0.03 0.03 76 1011.8
20260903203031 76 321 0.0 2.0 0.00 0.03 0.03 79 1011.8
20260903201530 74 61 0.0 2.0 0.00 0.03 0.03 82 1011.8
20260903200011 75 319 0.0 2.0 0.00 0.03 0.03 83 1012.0
20260903194514 74 113 0.0 2.0 0.00 0.03 0.03 81 1012.2
20260903193023 75 288 1.0 3.0 0.00 0.03 0.03 80 1012.2
20260903191530 74 293 1.0 3.0 0.00 0.03 0.03 81 1012.3
20260903190033 73 9 0.0 2.0 0.00 0.03 0.03 83 1012.3
20260903184515 73 76 0.0 3.0 0.00 0.03 0.03 83 1012.4
20260903183021 71 183 0.0 4.0 0.00 0.03 0.03 87 1012.7
20260903181526 69 207 0.0 2.0 0.00 0.03 0.03 87 1012.9
20260903180036 68 144 0.0 2.0 0.00 0.03 0.03 88 1013.1
20260903174536 68 157 0.0 2.0 0.00 0.03 0.03 88 1013.3
20260903173020 67 335 0.0 3.0 0.00 0.03 0.03 88 1013.4
20260903171523 65 105 0.0 2.0 0.00 0.03 0.03 89 1013.6
20260903170032 65 16 0.0 3.0 0.00 0.03 0.03 90 1013.7
20260903164533 65 18 0.0 2.0 0.00 0.03 0.03 91 1013.7
20260903163034 64 104 0.0 3.0 0.00 0.03 0.03 91 1013.7
20260903161520 65 348 1.0 2.0 0.00 0.03 0.03 90 1013.9
20260903160030 64 140 0.0 2.0 0.00 0.03 0.03 91 1014.0
20260903154506 63 123 0.0 2.0 0.00 0.03 0.03 92 1014.0
20260903153012 63 5 0.0 2.0 0.00 0.03 0.03 93 1014.3
20260903151517 63 90 0.0 2.0 0.00 0.03 0.03 92 1014.4
20260903150026 63 94 0.0 2.0 0.00 0.03 0.03 92 1014.4
20260903144504 63 54 1.0 3.0 0.00 0.03 0.03 92 1014.4
20260903143008 63 84 0.0 2.0 0.00 0.03 0.03 92 1014.5
20260903141513 63 75 0.0 2.0 0.00 0.03 0.03 93 1014.5
20260903140036 63 69 0.0 2.0 0.00 0.03 0.03 94 1014.5
20260903134504 63 95 0.0 2.0 0.00 0.03 0.03 93 1014.4
20260903133008 62 17 0.0 2.0 0.00 0.03 0.03 93 1014.4
20260903131512 62 327 0.0 2.0 0.00 0.03 0.03 95 1014.4
20260903130019 61 327 0.0 2.0 0.00 0.03 0.03 96 1014.6
20260903124530 61 327 0.0 2.0 0.00 0.03 0.03 96 1014.6
20260903123011 61 327 0.0 1.0 0.00 0.03 0.03 96 1014.6
20260903121512 60 51 0.0 2.0 0.00 0.03 0.03 97 1014.7
20260903120015 60 51 0.0 2.0 0.00 0.03 0.03 97 1014.9
20260903114523 59 51 0.0 1.0 0.00 0.03 0.03 97 1014.9
20260903113030 59 51 0.0 2.0 0.00 0.03 0.03 96 1015.0
20260903111512 59 51 0.0 2.0 0.00 0.03 0.03 96 1015.1
20260903110014 59 51 0.0 2.0 0.00 0.03 0.03 96 1015.1
20260903104518 59 51 0.0 2.0 0.00 0.03 0.03 96 1015.0
20260903103027 59 51 0.0 2.0 0.00 0.03 0.03 96 1014.9
20260903101529 59 51 0.0 2.0 0.00 0.03 0.03 96 1015.1
20260903100012 59 309 0.0 0.0 0.00 0.03 0.03 96 1015.0
20260903094520 59 309 0.0 2.0 0.00 0.03 0.03 96 1015.1
20260903093026 59 309 0.0 2.0 0.00 0.03 0.03 96 1015.1
20260903091527 59 309 0.0 2.0 0.00 0.03 0.03 96 1015.1
20260903090040 59 16 0.0 2.0 0.00 0.03 0.03 96 1015.4
20260903084512 59 5 0.0 0.0 0.00 0.03 0.03 96 1015.5
20260903083021 59 5 0.0 0.0 0.00 0.03 0.03 96 1015.6
20260903081526 59 5 0.0 0.0 0.00 0.03 0.03 96 1015.6
20260903080030 59 352 0.0 0.0 0.00 0.03 0.03 95 1015.7
20260903074533 59 352 0.0 2.0 0.00 0.03 0.03 95 1015.8
20260903073019 59 352 0.0 2.0 0.00 0.03 0.03 95 1015.9
20260903071524 59 321 0.0 2.0 0.01 0.03 0.03 95 1015.9
20260903070029 59 330 0.0 2.0 0.02 0.03 0.03 95 1016.1
20260903064531 59 9 0.0 2.0 0.03 0.03 0.03 94 1015.8
20260903063044 59 14 0.0 2.0 0.03 0.03 0.03 93 1016.1
20260903061518 60 292 0.0 2.0 0.02 0.02 0.02 92 1016.2
20260903060104 61 145 0.0 2.0 0.01 0.01 0.01 90 1016.4
20260903054534 61 360 0.0 2.0 0.00 0.00 0.00 89 1016.9